Location: Buisson
(44.2787°N, 4.9969°E)
Time: 01:33:15
(UTC+00:00)

Cosmos 1833 Rocket - Pass Details

Date: 18 April 2021
Orbit: 831 x 841 km, 71.0° (Epoch: 07 May)

Event Time Altitude Azimuth Distance (km) Brightness Sun altitude
Rises 01:54:17 0° 333° (NNW) 3,404 6.2 -27.0°
Reaches altitude 10° 01:56:44 10° 333° (NNW) 2,466 5.4 -26.7°
Maximum altitude 02:02:24 81° 247° (WSW) 857 2.5 -26.0°
Enters shadow 02:02:55 73° 188° (S) 882 2.5 -26.0°
